Weather Roundup
Issued by NWS Chicago, IL

Home | Current Version | Previous Version | Graphics & Text | Print | Product List | Glossary On
Versions: 1 2 3 4 5 6 7 8 9 10 11 12 13 14 15 16 17 18 19 20 21 22 23 24 25 26 27 28 29 30 31 32 33 34 35 36 37 38 39 40 41 42 43 44 45 46 47 48 49 50
000
NZUS59 KLOT 190958
HRRLOT

CHICAGO AREA WEATHER ROUNDUP
NATIONAL WEATHER SERVICE CHICAGO/ROMEOVILLE IL
500 AM CDT SAT APR 19 2014

NOTE: "FAIR" INDICATES FEW OR NO CLOUDS BELOW 12,000 FEET WITH NO
SIGNIFICANT WEATHER AND/OR OBSTRUCTIONS TO VISIBILITY.

* THESE STATIONS ARE NOT UNDER NWS QUALITY CONTROL. THEY ALSO MAY NOT
  REPORT WEATHER SUCH AS PRECIPITATION OR FOG.

ILZ005-006-012>014-019>023-191100-
NORTHEAST ILLINOIS

CITY           SKY/WX    TMP DP  RH WIND       PRES   REMARKS
OHARE          CLEAR     38  27  64 NE6       30.36R
MIDWAY         CLEAR     38  30  73 NE7       30.36R
AURORA         CLEAR     35  27  72 NE7       30.35F WCI  29
WAUKEGAN       CLEAR     34  28  79 NE8       30.37S WCI  27
DUPAGE AIRPORT CLEAR     31  26  82 NE6       30.35S WCI  25
WHEELING       CLEAR     38  29  70 NE7       30.38S
NORTHERLY IS     N/A     39  33  79 NE14        N/A
$$

WIZ051-052-058>065-066-070>072-191100-
SOUTHEAST WISCONSIN

CITY           SKY/WX    TMP DP  RH WIND       PRES   REMARKS
MILWAUKEE      PTCLDY    34  28  79 NE10      30.41S WCI  26
KENOSHA*       CLEAR     32  27  81 NE10      30.38S WCI  24
RACINE*        CLEAR     34  28  79 E10       30.41S WCI  26
$$

INZ001>003-010>013-019-020-191100-
NORTHWEST INDIANA

CITY           SKY/WX    TMP DP  RH WIND       PRES   REMARKS
GARY*          CLEAR     37  34  87 NE5       30.36S
MICHIGAN CITY* NOT AVBL
RENSSELAER*    NOT AVBL
VALPARAISO     CLEAR     32  27  81 NE6       30.34S WCI  26
$$

LMZ740>746-191100-
SOUTHERN LAKE MICHIGAN

STATION/POSITION TIME  SKY/WX   TEMP WIND        PRES    VSBY
                                AIR  DIR/SP/G
                 (UTC)          (F)  (DEG/KT/KT) (MB)    (MI)
HARRISON CRIB    0900            38   50/ 14/ 17   N/A
BURNHAM HARBOR   0900            39   60/ 13/ 13   N/A
CALUMET HARBOR   0900            38   50/  8/ 10 1028.5R
BURNS HARBOR     NOT AVBL
MICHIGAN CITY    0900            39   40/  7/  8   N/A
$$

ABBREVIATIONS USED IN REMARKS
   TC - TEMPERATURE IN CELSIUS
  WCI - WIND CHILL INDEX
   HX - HEAT INDEX
  VSB - VISIBILITY
$$


USA.gov is the U.S. government's official web portal to all federal, state and local government web resources and services.